CW3999 Weather Reports


Display with metric or nautical units.
time (UTC)temp
F
wind
direction
speed
MPH
gust
MPH
rain 1hr
in
rain 24hr
in
rain mn
in
humidity
%
barometer
mb
20260508063304 57 302 0.0 0.0 0.00 0.00 0.00 39 1014.9
20260508062803 57 302 0.0 0.0 0.00 0.00 0.00 38 1015.0
20260508062306 57 302 0.0 0.0 0.00 0.00 0.00 38 1014.9
20260508061803 58 302 0.0 0.0 0.00 0.00 0.00 38 1014.9
20260508061303 58 302 0.0 0.0 0.00 0.00 0.00 38 1014.9
20260508060803 58 302 0.0 0.0 0.00 0.00 0.00 38 1014.9
20260508060302 58 302 0.0 0.0 0.00 0.00 0.00 39 1014.9
20260508055305 58 302 0.0 0.0 0.00 0.00 0.00 42 1014.9
20260508054802 58 302 0.0 0.0 0.00 0.00 0.00 44 1014.9
20260508054302 59 302 0.0 0.0 0.00 0.00 0.00 44 1014.9
20260508053802 59 302 0.0 0.0 0.00 0.00 0.00 46 1014.9
20260508053303 59 302 0.0 0.0 0.00 0.00 0.00 46 1014.9
20260508052306 59 302 0.0 0.0 0.00 0.00 0.00 47 1014.9
20260508051803 59 302 0.0 0.0 0.00 0.00 0.00 47 1014.9
20260508051301 60 302 0.0 0.0 0.00 0.00 0.00 49 1014.8
20260508050801 60 302 0.0 0.0 0.00 0.00 0.00 51 1014.8
20260508050302 60 302 0.0 0.0 0.00 0.00 0.00 52 1014.7
20260508045802 60 302 0.0 0.0 0.00 0.00 0.00 53 1014.7
20260508045306 61 302 0.0 0.0 0.00 0.00 0.00 54 1014.7
20260508043802 62 302 0.0 0.0 0.00 0.00 0.00 57 1014.8
20260508042802 62 302 0.0 0.0 0.00 0.00 0.00 57 1014.8
20260508041803 63 302 0.0 0.0 0.00 0.00 0.00 56 1014.6
20260508041304 63 302 0.0 0.0 0.00 0.00 0.00 56 1014.5
20260508040802 64 302 0.0 0.0 0.00 0.00 0.00 56 1014.5
20260508040304 64 302 0.0 0.0 0.00 0.00 0.00 55 1014.3
20260508035802 64 302 0.0 0.0 0.00 0.00 0.00 55 1014.3
20260508035301 64 302 0.0 0.0 0.00 0.00 0.00 54 1014.3
20260508033802 65 302 0.0 0.0 0.00 0.00 0.00 53 1014.1
20260508033301 65 302 0.0 0.0 0.00 0.00 0.00 53 1014.1
20260508032803 66 302 0.0 0.0 0.00 0.00 0.00 53 1014.0
20260508032306 66 302 0.0 0.0 0.00 0.00 0.00 54 1014.1
20260508031803 67 302 0.0 0.0 0.00 0.00 0.00 54 1014.0
20260508031307 67 302 0.0 0.0 0.00 0.00 0.00 54 1014.0
20260508030803 67 302 0.0 0.0 0.00 0.00 0.00 53 1013.9
20260508030247 68 302 0.0 0.0 0.00 0.00 0.00 56 1013.8
20260508025230 69 302 0.0 0.0 0.00 0.00 0.00 55 1013.8
20260508024731 69 302 0.0 0.0 0.00 0.00 0.00 54 1013.8
20260508024231 69 302 0.0 0.0 0.00 0.00 0.00 54 1013.8
20260508023729 69 302 0.0 0.0 0.00 0.00 0.00 53 1013.9
20260508023230 69 302 0.0 0.0 0.00 0.00 0.00 53 1014.0
20260508022730 69 302 0.0 0.0 0.00 0.00 0.00 52 1014.0
20260508022231 69 302 0.0 0.0 0.00 0.00 0.00 52 1013.9
20260508021729 69 302 0.0 0.0 0.00 0.00 0.00 52 1013.9
20260508021229 69 302 0.0 0.0 0.00 0.00 0.00 52 1013.9
20260508020730 69 302 0.0 0.0 0.00 0.00 0.00 52 1014.0
20260508020231 70 302 0.0 0.0 0.00 0.00 0.00 52 1013.9
20260508015731 70 302 0.0 0.0 0.00 0.00 0.00 52 1013.9
20260508015230 70 302 0.0 0.0 0.00 0.00 0.00 53 1013.9
20260508014729 70 302 0.0 0.0 0.00 0.00 0.00 52 1014.0
20260508014228 70 302 0.0 0.0 0.00 0.00 0.00 52 1014.0
20260508013731 70 302 0.0 0.0 0.00 0.00 0.00 51 1014.1
20260508013231 70 302 0.0 0.0 0.00 0.00 0.00 52 1014.2
20260508012730 70 302 0.0 0.0 0.00 0.00 0.00 51 1014.2
20260508012230 71 302 0.0 0.0 0.00 0.00 0.00 50 1014.3
20260508011732 71 302 0.0 0.0 0.00 0.00 0.00 51 1014.3
20260508011234 71 302 0.0 0.0 0.00 0.00 0.00 51 1014.4
20260508010730 71 302 0.0 0.0 0.00 0.00 0.00 51 1014.4
20260508010230 71 302 0.0 0.0 0.00 0.00 0.00 50 1014.4
20260508005731 71 302 0.0 0.0 0.00 0.00 0.00 51 1014.5
20260508005230 71 302 0.0 0.0 0.00 0.00 0.00 51 1014.5
20260508004729 71 302 0.0 0.0 0.00 0.00 0.00 50 1014.5
20260508004228 71 302 0.0 0.0 0.00 0.00 0.00 51 1014.5
20260508003730 71 302 0.0 0.0 0.00 0.00 0.00 52 1014.5
20260508003230 70 302 0.0 0.0 0.00 0.00 0.00 50 1014.6
20260508002730 71 302 0.0 0.0 0.00 0.00 0.00 50 1014.7
20260508001729 71 302 0.0 0.0 0.00 0.00 0.00 51 1014.8
20260508001231 72 302 0.0 0.0 0.00 0.00 0.00 48 1014.8
20260508000732 72 302 0.0 0.0 0.00 0.00 0.00 49 1014.8
20260508000230 72 302 0.0 0.0 0.00 0.00 0.00 48 1014.8
20260507235230 73 302 0.0 0.0 0.00 0.00 0.00 48 1014.9
20260507234730 72 302 0.0 0.0 0.00 0.00 0.00 49 1015.0
20260507233231 71 302 0.0 0.0 0.00 0.00 0.00 50 1015.1
20260507232730 70 302 0.0 0.0 0.00 0.00 0.00 49 1015.1
20260507231218 70 302 0.0 0.0 0.00 0.00 0.00 49 1015.4
20260507230715 71 302 0.0 0.0 0.00 0.00 0.00 49 1015.6
20260507230210 70 302 0.0 0.0 0.00 0.00 0.00 49 1015.6
20260507225711 69 302 0.0 0.0 0.00 0.00 0.00 51 1015.7
20260507225211 70 302 0.0 0.0 0.00 0.00 0.00 49 1015.8
20260507224705 69 302 0.0 0.0 0.00 0.00 0.00 50 1015.9
20260507224202 69 302 0.0 0.0 0.00 0.00 0.00 50 1015.9
20260507223202 68 302 0.0 0.0 0.00 0.00 0.00 49 1016.1
20260507222701 68 302 0.0 0.0 0.00 0.00 0.00 48 1016.1
20260507222204 68 302 0.0 0.0 0.00 0.00 0.00 49 1016.2
20260507221703 68 302 0.0 0.0 0.00 0.00 0.00 51 1016.3
20260507221203 68 302 0.0 0.0 0.00 0.00 0.00 48 1016.4
20260507220703 68 302 0.0 0.0 0.00 0.00 0.00 51 1016.6
20260507220202 67 302 0.0 0.0 0.00 0.00 0.00 48 1016.7
20260507215703 67 302 0.0 0.0 0.00 0.00 0.00 51 1016.7
20260507215203 65 302 0.0 0.0 0.00 0.00 0.00 47 1016.8
20260507214702 66 302 0.0 0.0 0.00 0.00 0.00 48 1016.8
20260507214201 66 302 0.0 0.0 0.00 0.00 0.00 47 1016.8
20260507213702 66 302 0.0 0.0 0.00 0.00 0.00 51 1016.8
20260507213201 66 302 0.0 0.0 0.00 0.00 0.00 46 1016.9
20260507212702 66 302 0.0 0.0 0.00 0.00 0.00 47 1017.0
20260507212201 66 302 0.0 0.0 0.00 0.00 0.00 46 1017.0
20260507211704 66 302 0.0 0.0 0.00 0.00 0.00 46 1017.1
20260507211204 66 302 0.0 0.0 0.00 0.00 0.00 47 1017.1
20260507210703 66 302 0.0 0.0 0.00 0.00 0.00 49 1017.2
20260507210203 66 302 0.0 0.0 0.00 0.00 0.00 49 1017.2
20260507204703 66 302 0.0 0.0 0.00 0.00 0.00 53 1017.4
20260507204203 65 302 0.0 0.0 0.00 0.00 0.00 51 1017.5
20260507203703 65 302 0.0 0.0 0.00 0.00 0.00 55 1017.5
20260507202703 64 302 0.0 0.0 0.00 0.00 0.00 55 1017.6
20260507202203 64 302 0.0 0.0 0.00 0.00 0.00 52 1017.8
20260507201702 65 302 0.0 0.0 0.00 0.00 0.00 54 1017.8
20260507201204 64 302 0.0 0.0 0.00 0.00 0.00 52 1017.9
20260507200702 64 302 0.0 0.0 0.00 0.00 0.00 52 1018.0
20260507200203 64 302 0.0 0.0 0.00 0.00 0.00 52 1018.1
20260507195201 64 302 0.0 0.0 0.00 0.00 0.00 55 1018.2
20260507194701 63 302 0.0 0.0 0.00 0.00 0.00 56 1018.2
20260507194202 62 302 0.0 0.0 0.00 0.00 0.00 56 1018.2
20260507193702 63 302 0.0 0.0 0.00 0.00 0.00 55 1018.3
20260507193200 63 302 0.0 0.0 0.00 0.00 0.00 55 1018.3
20260507192204 64 302 0.0 0.0 0.00 0.00 0.00 53 1018.4
20260507191703 63 302 0.0 0.0 0.00 0.00 0.00 55 1018.5
20260507191202 63 302 0.0 0.0 0.00 0.00 0.00 56 1018.5
20260507190704 63 302 0.0 0.0 0.00 0.00 0.00 55 1018.5
20260507190204 63 302 0.0 0.0 0.00 0.00 0.00 55 1018.6
20260507185703 63 302 0.0 0.0 0.00 0.00 0.00 56 1018.6
20260507185203 63 302 0.0 0.0 0.00 0.00 0.00 56 1018.7
20260507183703 62 302 0.0 0.0 0.00 0.00 0.00 56 1018.8
20260507183203 61 302 0.0 0.0 0.00 0.00 0.00 54 1018.9
20260507182705 60 302 0.0 0.0 0.00 0.00 0.00 56 1018.8
20260507181201 60 302 0.0 0.0 0.00 0.00 0.00 55 1019.1
20260507180203 60 302 0.0 0.0 0.00 0.00 0.00 55 1019.1
20260507175203 60 302 0.0 0.0 0.00 0.00 0.00 50 1019.2
20260507174203 58 302 0.0 0.0 0.00 0.00 0.00 48 1019.3
20260507173702 57 302 0.0 0.0 0.00 0.00 0.00 49 1019.3
20260507173202 57 302 0.0 0.0 0.00 0.00 0.00 46 1019.4
20260507172203 57 302 0.0 0.0 0.00 0.00 0.00 40 1019.4
20260507171704 56 302 0.0 0.0 0.00 0.00 0.00 40 1019.5
20260507171204 56 302 0.0 0.0 0.00 0.00 0.00 35 1019.4
20260507170703 56 302 0.0 0.0 0.00 0.00 0.00 29 1019.4
20260507170155 55 302 0.0 0.0 0.00 0.00 0.00 34 1019.4
20260507165139 54 302 0.0 0.0 0.00 0.00 0.00 35 1019.5
20260507164638 54 302 0.0 0.0 0.00 0.00 0.00 36 1019.5
20260507163632 53 302 0.0 0.0 0.00 0.00 0.00 32 1019.5
20260507163132 53 302 0.0 0.0 0.00 0.00 0.00 35 1019.5
20260507162632 53 302 0.0 0.0 0.00 0.00 0.00 29 1019.5
20260507162132 53 302 0.0 0.0 0.00 0.00 0.00 27 1019.5
20260507161629 52 302 0.0 0.0 0.00 0.00 0.00 28 1019.5
20260507161130 52 302 0.0 0.0 0.00 0.00 0.00 27 1019.5
20260507160626 52 302 0.0 0.0 0.00 0.00 0.00 28 1019.6
20260507160126 52 302 0.0 0.0 0.00 0.00 0.00 27 1019.5
20260507155626 52 302 0.0 0.0 0.00 0.00 0.00 28 1019.6
20260507155129 52 302 0.0 0.0 0.00 0.00 0.00 27 1019.6
20260507154625 52 302 0.0 0.0 0.00 0.00 0.00 23 1019.6
20260507154124 52 302 0.0 0.0 0.00 0.00 0.00 25 1019.6
20260507153624 52 302 0.0 0.0 0.00 0.00 0.00 23 1019.6
20260507153102 51 302 0.0 0.0 0.00 0.00 0.00 21 1019.6
20260507152102 51 302 0.0 0.0 0.00 0.00 0.00 21 1019.5
20260507151602 51 302 0.0 0.0 0.00 0.00 0.00 22 1019.6
20260507151102 51 302 0.0 0.0 0.00 0.00 0.00 22 1019.5
20260507150603 51 302 0.0 0.0 0.00 0.00 0.00 20 1019.5
20260507150104 51 302 0.0 0.0 0.00 0.00 0.00 20 1019.5
20260507145604 51 302 0.0 0.0 0.00 0.00 0.00 18 1019.5
20260507145103 51 302 0.0 0.0 0.00 0.00 0.00 20 1019.5
20260507144602 51 302 0.0 0.0 0.00 0.00 0.00 18 1019.5
20260507144103 51 302 0.0 0.0 0.00 0.00 0.00 21 1019.5
20260507143103 51 302 0.0 0.0 0.00 0.00 0.00 24 1019.4
20260507142603 51 302 0.0 0.0 0.00 0.00 0.00 22 1019.5
20260507142104 51 302 0.0 0.0 0.00 0.00 0.00 19 1019.4
20260507141602 51 302 0.0 0.0 0.00 0.00 0.00 17 1019.4
20260507141103 51 302 0.0 0.0 0.00 0.00 0.00 19 1019.5
20260507140609 51 302 0.0 0.0 0.00 0.00 0.00 17 1019.4
20260507135603 51 302 0.0 0.0 0.00 0.00 0.00 15 1019.2
20260507135104 51 302 0.0 0.0 0.00 0.00 0.00 16 1019.2
20260507134602 51 302 0.0 0.0 0.00 0.00 0.00 18 1019.1
20260507134102 51 302 0.0 0.0 0.00 0.00 0.00 19 1019.2
20260507133601 51 302 0.0 0.0 0.00 0.00 0.00 20 1019.1
20260507133102 51 302 0.0 0.0 0.00 0.00 0.00 22 1019.1
20260507132600 51 302 0.0 0.0 0.00 0.00 0.00 23 1019.0
20260507132106 51 302 0.0 0.0 0.00 0.00 0.00 26 1019.0
20260507131603 51 302 0.0 0.0 0.00 0.00 0.00 26 1019.0
20260507131103 51 302 0.0 0.0 0.00 0.00 0.00 27 1019.1
20260507130603 51 302 0.0 0.0 0.00 0.00 0.00 26 1019.0
20260507130103 51 302 0.0 0.0 0.00 0.00 0.00 26 1019.1
20260507125603 51 302 0.0 0.0 0.00 0.00 0.00 26 1019.1
20260507125108 51 302 0.0 0.0 0.00 0.00 0.00 27 1019.1
20260507124603 51 302 0.0 0.0 0.00 0.00 0.00 26 1019.1
20260507124102 51 302 0.0 0.0 0.00 0.00 0.00 27 1019.0
20260507123601 51 302 0.0 0.0 0.00 0.00 0.00 27 1019.1
20260507123102 51 302 0.0 0.0 0.00 0.00 0.00 28 1019.1
20260507122602 51 302 0.0 0.0 0.00 0.00 0.00 28 1019.1
20260507122100 52 302 0.0 0.0 0.00 0.00 0.00 28 1019.1
20260507121602 52 302 0.0 0.0 0.00 0.00 0.00 27 1019.1
20260507121104 52 302 0.0 0.0 0.00 0.00 0.00 28 1019.2
20260507120603 52 302 0.0 0.0 0.00 0.00 0.00 28 1019.2
20260507115603 52 302 0.0 0.0 0.00 0.00 0.00 28 1019.3
20260507115103 52 302 0.0 0.0 0.00 0.00 0.00 28 1019.3
20260507114602 52 302 0.0 0.0 0.00 0.00 0.00 29 1019.3
20260507114103 52 302 0.0 0.0 0.00 0.00 0.00 30 1019.4
20260507113602 52 302 0.0 0.0 0.00 0.00 0.00 29 1019.4
20260507112604 52 302 0.0 0.0 0.00 0.00 0.00 29 1019.4
20260507112104 52 302 0.0 0.0 0.00 0.00 0.00 28 1019.4
20260507111603 52 302 0.0 0.0 0.00 0.00 0.00 29 1019.4
20260507111103 52 302 0.0 0.0 0.00 0.00 0.00 29 1019.4
20260507110604 52 302 0.0 0.0 0.00 0.00 0.00 29 1019.4
20260507110104 52 302 0.0 0.0 0.00 0.00 0.00 30 1019.4
20260507105609 52 302 0.0 0.0 0.00 0.00 0.00 31 1019.5
20260507105101 52 302 0.0 0.0 0.00 0.00 0.00 32 1019.4
20260507104601 53 302 0.0 0.0 0.00 0.00 0.00 31 1019.5
20260507104102 53 302 0.0 0.0 0.00 0.00 0.00 29 1019.5
20260507103602 53 302 0.0 0.0 0.00 0.00 0.00 30 1019.7
20260507102604 53 302 0.0 0.0 0.00 0.00 0.00 31 1019.7
20260507102059 53 302 0.0 0.0 0.00 0.00 0.00 30 1019.7
20260507101555 53 302 0.0 0.0 0.00 0.00 0.00 30 1019.7
20260507101055 53 302 0.0 0.0 0.00 0.00 0.00 30 1019.8
20260507100531 53 302 0.0 0.0 0.00 0.00 0.00 30 1019.8
20260507095531 53 302 0.0 0.0 0.00 0.00 0.00 30 1019.8
20260507095030 53 302 0.0 0.0 0.00 0.00 0.00 29 1019.8
20260507094529 53 302 0.0 0.0 0.00 0.00 0.00 27 1019.8
20260507094031 53 302 0.0 0.0 0.00 0.00 0.00 28 1019.9
20260507093531 53 302 0.0 0.0 0.00 0.00 0.00 28 1019.9
20260507092032 53 302 0.0 0.0 0.00 0.00 0.00 26 1020.0
20260507091531 53 302 0.0 0.0 0.00 0.00 0.00 27 1020.0
20260507091032 53 302 0.0 0.0 0.00 0.00 0.00 28 1020.2
20260507090526 53 302 0.0 0.0 0.00 0.00 0.00 28 1020.2
20260507090027 53 302 0.0 0.0 0.00 0.00 0.00 29 1020.2
20260507085518 54 302 0.0 0.0 0.00 0.00 0.00 29 1020.2
20260507085019 54 302 0.0 0.0 0.00 0.00 0.00 27 1020.2
20260507084003 54 302 0.0 0.0 0.00 0.00 0.00 24 1020.1
20260507083001 54 302 0.0 0.0 0.00 0.00 0.00 24 1020.1
20260507082002 54 302 0.0 0.0 0.00 0.00 0.00 23 1020.1
20260507081002 54 302 0.0 0.0 0.00 0.00 0.00 17 1020.1
20260507080504 54 302 0.0 0.0 0.00 0.00 0.00 15 1020.1
20260507075502 54 302 0.0 0.0 0.00 0.00 0.00 14 1020.1
20260507075004 54 302 0.0 0.0 0.00 0.00 0.00 7 1020.1
20260507074504 54 302 0.0 0.0 0.00 0.00 0.00 6 1020.2
20260507074003 54 302 0.0 0.0 0.00 0.00 0.00 4 1020.1
20260507073004 54 302 0.0 0.0 0.00 0.00 0.00 3 1020.1
20260507072503 54 302 0.0 0.0 0.00 0.00 0.00 1 1020.2
20260507072003 54 302 0.0 0.0 0.00 0.00 0.00 2 1020.1
20260507071501 54 302 0.0 0.0 0.00 0.00 0.00 1 1020.0
20260507071002 54 302 0.0 0.0 0.00 0.00 0.00 100 1020.0
20260507070501 54 302 0.0 0.0 0.00 0.00 0.00 1 1020.0
20260507070002 54 302 0.0 0.0 0.00 0.00 0.00 2 1020.0
20260507065502 54 302 0.0 0.0 0.00 0.00 0.00 2 1019.9
20260507065004 54 302 0.0 0.0 0.00 0.00 0.00 3 1019.9
20260507064004 54 302 0.0 0.0 0.00 0.00 0.00 3 1019.9